Location: Alvediston
(51.0078°N, 2.0364°W)
Time: 15:11:06
(UTC+00:00)

STARLINK-1031 - Pass Details

Date: 27 February 2020
Orbit: 553 x 556 km, 53.0° (Epoch: 28 March)

Event Time Altitude Azimuth Distance (km) Brightness Sun altitude
Rises 20:18:20 0° 275° (W) 2,731 8.5 -24.7°
Reaches altitude 10° 20:20:35 10° 279° (W) 1,837 7.3 -25.0°
Enters shadow 20:24:09 57° 317° (NW) 660 4.2 -25.5°
